www.pogodaiklimat.ru

Погода и климат >> Архив погоды >> Боливия >> Puerto Suarez


ПОГОДА в Puerto Suarez

  • Прогноз погоды в Puerto Suarez
  • Монитор погоды в Puerto Suarez
  • Климат города

АРХИВ ПОГОДЫ в Puerto Suarez

Время (UTC), дата Ветер
(напр.,м/с)
 
Видим.   Явления Облачность Т
(С)
Тd
(С)
f
(%)
Тe
(С)
Тes
(С)
Комфортность P
(гПа)
Po
(гПа)
Тmin
(С)
Tmax
(С)
R
(мм)
R24
(мм)
S
(см)
12 17.08 штиль 0 3000 м морось {дождь} 10/10 210 м
[Sc]
+20.2 +19.9 98 +24 +24 комфорт 1013.0 997.6 +17.6 15
15 17.08 штиль 0 8000 м дымка {морось, дождь} 10/9 240 м
[Sc As op]
+22.4 +21.7 96 +30 +30 очень
душно
1013.8 998.4
18 17.08 штиль 0 20 км {морось} 10/9 450 м
[Sc As op]
+23.0 +21.6 92 +31 +31 очень
душно
1011.8 996.4 0.4
21 17.08 штиль 0 6000 м слабый дождь 10/9 400 м
[Sc As op]
+22.0 +22.0 100 +29 +29 очень
душно
1011.8 996.4 +23.2
12 18.08 штиль 0 3000 м дымка {туман} 10/9 210 м
[Sc As op]
+20.2 +19.9 98 +24 +24 комфорт 1012.6 997.2 +18.0 3
15 18.08 В 2 30 км 9/8 450 м
[Sc Ac trans]
+24.0 +21.5 86 +31 +33 очень
душно
1012.6 997.2
18 18.08 С 2 30 км 9/5 450 м
[Sc Ac trans]
+25.2 +21.3 79 +32 +35 очень
душно
1009.4 994.0
21 18.08 В 2 30 км 8/0 2000 м
[Ac trans]
+25.6 +22.1 81 +33 +33 очень
душно
1007.4 992.2 +26.2
12 19.08 В 2 20 км дым 3/0 2000 м
[Ac trans]
+23.2 +21.9 92 +31 +35 очень
душно
1007.4 992.3 +19.2
15 19.08 В 4 30 км дым ясно +30.8 +23.0 63 +41 +51 опасность
перегрева
1007.3 992.0
18 19.08 С 7 30 км дым 3/3 600 м
[Cu hum]
+34.0 +21.6 48 +42 +44 опасность
перегрева
1003.9 988.6
21 19.08 С 4 30 км дым 3/3 600 м
[Cu hum]
+33.2 +21.8 51 +41 +42 опасность
перегрева
1002.4 987.2 +35.6
12 20.08 Ю 4 30 км 5/3 600 м
[Cu hum Ac trans]
+26.0 +20.3 71 +32 +34 очень
душно
1011.4 996.0 +21.0
15 20.08 Ю 6 30 км 10/10 600 м
[Sc]
+24.2 +20.4 79 +30 +30 очень
душно
1015.0 999.6
18 20.08 Ю 6 30 км 5/5 600 м
[Cu med, cong]
+26.5 +18.6 62 +31 +34 душно 1014.0 998.6
21 20.08 Ю 4 30 км 3/3 600 м
[Cu hum]
+26.2 +15.9 53 +29 +30 жарко 1013.6 998.2 +27.8
12 21.08 Ю 4 30 км ясно +16.3 +8.7 61 +16 +18 1019.4 1004.2 +12.6
15 21.08 Ю 3 30 км ясно +21.0 +10.2 50 +23 +36 комфорт 1019.9 1004.8
18 21.08 Ю 2 30 км ясно +25.4 +10.8 40 +26 +38 жарко 1017.1 1001.8
21 21.08 штиль 0 30 км ясно +26.0 +10.6 38 +27 +28 жарко 1015.7 1000.4 +26.8
12 22.08 штиль 0 30 км ясно +13.0 +7.6 70 +13 +18 1016.3 1001.0 +9.8
15 22.08 В 2 30 км ясно +23.0 +13.6 55 +26 +42 жарко 1015.2 999.8
18 22.08 В 2 30 км ясно +26.0 +13.6 46 +28 +40 жарко 1011.4 996.0
21 22.08 В 2 30 км ясно +26.8 +15.9 51 +30 +30 душно 1009.4 994.0 +28.0
12 23.08 В 3 30 км ясно +23.8 +20.6 82 +30 +33 очень
душно
1011.0 995.6 +19.8
15 23.08 В 4 30 км ясно +29.6 +22.1 64 +38 +49 очень
душно
1011.2 995.8
18 23.08 В 5 30 км ясно +33.2 +23.6 57 +44 +50 опасность
перегрева
1007.5 992.3
21 23.08 В 4 30 км ясно +31.0 +22.9 62 +41 +41 опасность
перегрева
1006.3 991.0 +34.0

 

Местоположение метеостанции Puerto Suarez (Боливия): широта -18.98 долгота -57.81 высота над уровнем моря 134 м.

В архиве по умолчанию представлена погода в Puerto Suarez за последнюю неделю. Архивные данные за месяц целиком и за предыдущие месяцы, начиная с января 2011 года, Вы можете получить, выбрав интересующий диапазон дат из раскрывающегося списка и нажав кнопку "Ввод!".

Внимание! Время в таблицах - всемирное. Для получения местного времени необходимо прибавить поправку, которая в Puerto Suarez равна -4 ч.

Смотрите также архив погоды в соседних городах и на ближайших метеорологических станциях:

Погода в Robore (Боливия) (219 км)
Погода в San Matias (Боливия) (301 км)
Погода в Caceres (Бразилия) (326 км)
Погода в San Jose De Chiquit (Боливия) (335 км)
Погода в Puerto Casado (Парагвай) (367 км)
Погода в Campo Grande (Бразилия) (369 км)
Погода в Cuiaba (Бразилия) (412 км)
Погода в San Ignacio De Vela (Боливия) (442 км)
Погода в Mariscal Estigar (Парагвай) (445 км)
Погода в Ponta Pora (Бразилия) (452 км)

Пояснения к столбцам:

Ветер - указаны скорость ветра в м/с - средняя за 10 мин, порывы в срок и между сроками (в фигурных скобках) и направление, откуда дует ветер: С - северный, СВ - северо-восточный, В - восточный, ЮВ - юго-восточный, Ю - южный, ЮЗ - юго-западный, З - западный, СЗ - северо-западный.
Видимость - горизонтальная дальность видимости в метрах или километрах. При видимости от 1 до 10 км при отсутствии осадков обычно наблюдается дымка, при ухудшении видимости до 1 км и менее - туман. В сухую погоду видимость может ухудшаться дымом, пылью или мглою.
Явления - указаны атмосферные явления, наблюдавшиеся в срок или в последний час перед сроком; фигурными скобками обозначены явления, наблюдавшиеся между сроками (за 1-3 часа до срока); квадратными скобками обозначены град или гололедные отложения с указанием их диаметра в мм.
Облачность - указаны через наклонную черту общая и нижняя облачность в баллах и высота нижней границы облаков в метрах; квадратными скобками обозначены формы облаков: Ci - перистые, Cs - перисто-слоистые, Cc - перисто-кучевые, Ac - высококучевые, As - высокослоистые, Sc - слоисто-кучевые, Ns - слоисто-дождевые, Cu - кучевые, Cb - кучево-дождевые. Подробнее классификацию облаков см. в Атласе облаков (PDF).
T - Температура воздуха - температура, измеренная на высоте 2 м над землей.
Td - Температура точки росы - температура, при понижении до которой содержащийся в воздухе водяной пар достигнет насыщения.
f - Относительная влажность воздуха - влажноcть воздуха, измеренная на высоте 2 м над землей.
Te - Эффективная температура - температура, которую ощущает одетый по сезону человек в тени. Характеристика душности погоды. При расчете учитывается влияние влажности воздуха и скорости ветра на теплоощущения человека.
Tes - Эффективная температура на солнце - температура, которую ощущает человек, с поправкой на солнечный нагрев. Характеристика знойности погоды. Зависит от высоты солнца над горизонтом, облачности и скорости ветра. Ночью, в пасмурную погоду, а также при ветре 12 м/с и более поправка равна нулю.
P - Атмосферное давление - приведенное к уровню моря атмосферное давление.
Po - Атмосферное давление - измеренное на уровне метеостанции атмосферное давление.
Tmin - Минимальная температура - минимум температуры воздуха на высоте 2 м над землей.
Tmax - Максимальная температура - максимум температуры воздуха на высоте 2 м над землей.
R - Количество осадков - Количество выпавших осадков за период времени, мм. При наведении курсора мыши на число - период времени, за который выпало указанное количество осадков.
R24 - Количество осадков - Количество выпавших осадков за 24 часа, мм.
S - Снежный покров - Высота снежного покрова, см. При наведении курсора мыши на число - состояние снежного покрова и степень покрытия местности в баллах.